Location: Newark
(54.6833°N, 25.2833°E)
Time: 15:50:42
(UTC+00:00)

Tiros 1 despin weight - Pass Details

Date: 22 November 2019
Orbit: 594 x 642 km, 48.2° (Epoch: 08 December)

Event Time Altitude Azimuth Distance (km) Brightness Sun altitude
Rises 13:26:02 0° 258° (WSW) 2,831 ? 3.8°
Reaches altitude 10° 13:28:27 10° 250° (WSW) 1,932 ? 3.5°
Maximum altitude 13:32:28 35° 185° (S) 967 ? 3.1°
Drops below altitude 10° 13:36:33 10° 119° (ESE) 1,949 ? 2.7°
Sets 13:38:59 0° 110° (ESE) 2,860 ? 2.4°
